[[{"header":{"parameterUnit":"m.s-1","parameterCategory":2,"la1":30.2991,"la2":30.254,"lo1":-89.0895,"lo2":-89.0444,"dy":0.0017,"dx":0.0017,"nx":28,"ny":28,"refTime":"2026-02-26T09:00:00:Z","depth":"0","parameterNumber":2,"parameterNumberName":"U-component_of_CURRENTS"},"data":[0,0,0,0,0,0,0,0,0,0,0,0,0,0,0,0,0,0,0,0,0,0,0,0,0,0,0,0,0,0,0,0,0,0,0,0,0,0,0,0,0,0,0,0,0,0,0,0,0,0,0,0,0,0,0,0,0,0,-0.2697,-0.2698,0,-0.2757,-0.2757,-0.2758,-0.2743,-0.2742,-0.2741,-0.274,-0.2695,-0.2695,-0.2695,0,0,0,0,0,0,0,0,0,0,0,0,0,-0.2534,-0.2537,-0.2697,-0.2698,-0.2699,-0.2756,-0.2757,-0.2758,-0.2743,-0.2742,-0.2741,-0.274,-0.2695,-0.2695,-0.2695,0,0,0,0,0,0,0,0,0,0,0,0,0,-0.2598,-0.2538,-0.2697,-0.27,-0.2701,-0.2756,-0.2757,-0.2758,-0.2743,-0.2742,-0.274,-0.2739,-0.2695,-0.2695,-0.2695,-0.2721,0,0,-0.2693,-0.2693,0,0,0,0,0,0,0,0,-0.2595,-0.2604,-0.2699,-0.27,-0.2702,-0.2743,-0.2683,-0.2741,-0.2744,-0.2725,-0.274,-0.2738,-0.2704,-0.2703,-0.2716,-0.2719,-0.2717,-0.2693,-0.2693,-0.2693,-0.2693,0,0,0,0,0,0,0,-0.259,-0.2601,-0.2719,-0.27,-0.2702,-0.2686,-0.2694,-0.2694,-0.2718,-0.2727,-0.2726,-0.2737,-0.2703,-0.2716,-0.2714,-0.2716,-0.2693,-0.2693,-0.2693,-0.2692,-0.2725,-0.2726,0,0,0,0,0,0,-0.2592,-0.2598,-0.2717,-0.2721,-0.2646,-0.269,-0.2699,-0.2729,-0.2721,-0.2719,-0.2738,-0.2736,-0.2718,-0.2715,-0.2712,-0.2735,-0.2693,-0.2692,-0.2692,-0.2724,-0.2726,-0.2727,0,0,0,0,0,0,-0.2588,-0.2603,-0.2714,-0.266,-0.2674,-0.2695,-0.2729,-0.2731,-0.2742,-0.2731,-0.2726,-0.2747,-0.2716,-0.2713,-0.2722,-0.2733,-0.2692,-0.2692,-0.2723,-0.2725,-0.2726,-0.2785,0,0,0,0,0,0,-0.2584,-0.2602,-0.2618,-0.2662,-0.2677,-0.2757,-0.2731,-0.2733,-0.2752,-0.275,-0.2737,-0.2732,-0.2715,-0.2723,-0.2722,-0.2732,-0.2691,-0.2721,-0.2724,-0.2726,-0.2781,-0.2788,-0.2794,0,0,0,0,0,-0.2578,-0.2615,-0.2619,-0.2633,-0.2702,-0.2758,-0.2765,-0.2772,-0.2754,-0.2773,-0.2762,-0.2732,-0.2735,-0.2724,-0.2722,-0.2732,-0.272,-0.2723,-0.2726,-0.2779,-0.2787,-0.2794,0,0,0,0,0,0,-0.2558,-0.2619,-0.2623,-0.2678,-0.2717,-0.2757,-0.2774,-0.2778,-0.2787,-0.2776,-0.2754,-0.2749,-0.2766,-0.2744,-0.2732,-0.2749,-0.272,-0.2722,-0.2761,-0.2769,-0.2775,-0.2748,-0.2691,0,0,0,0,0,-0.2562,-0.2601,-0.2654,-0.2696,-0.2716,-0.2743,-0.2763,-0.2774,-0.2791,-0.2793,-0.2787,-0.2775,-0.2778,-0.2768,-0.2773,-0.278,-0.2724,-0.2784,-0.279,-0.2795,-0.2773,-0.2725,-0.2724,-0.2735,-0.2735,-0.2735,0,0,-0.2563,-0.2603,-0.2623,-0.2693,-0.2718,-0.2755,-0.2751,-0.2792,-0.2809,-0.2786,-0.2803,-0.2807,-0.279,-0.2806,-0.2808,-0.2783,-0.2762,-0.2799,-0.2803,-0.2777,-0.2727,-0.2726,-0.2725,-0.2737,-0.2737,-0.2736,0,0,-0.2581,-0.2624,-0.2654,-0.2692,-0.2742,-0.2767,-0.278,-0.2826,-0.2831,-0.2862,-0.2846,-0.2853,-0.2861,-0.2848,-0.284,-0.2882,-0.2811,-0.2887,-0.2881,-0.2836,-0.2834,-0.2831,-0.2749,-0.2739,-0.2874,-0.2875,-0.2875,0,-0.257,-0.2619,-0.2671,-0.271,-0.2726,-0.2772,-0.2794,-0.2828,-0.2867,-0.2855,-0.2871,-0.2868,-0.2877,-0.2856,-0.2886,-0.2894,-0.2841,-0.2855,-0.2842,-0.2838,-0.2834,-0.2751,-0.2738,-0.2878,-0.2877,-0.2877,-0.2877,0,-0.2612,-0.264,-0.2665,-0.2721,-0.2758,-0.2788,-0.2839,-0.2865,-0.2879,-0.289,-0.289,-0.2907,-0.2886,-0.291,-0.2919,-0.2896,-0.2858,-0.2868,-0.2817,-0.2836,-0.2747,-0.2734,-0.2882,-0.2881,-0.288,-0.2879,0,0,-0.2578,-0.2669,-0.2669,-0.2666,-0.2754,-0.2772,-0.2824,-0.2848,-0.2832,-0.2885,-0.2849,-0.2901,-0.2892,-0.2883,-0.2888,-0.2866,-0.2826,-0.2861,-0.2857,-0.2769,-0.2688,-0.2613,-0.2589,-0.2833,-0.2831,-0.283,-0.2633,0,-0.2568,-0.2603,-0.2673,-0.2686,-0.2685,-0.2753,-0.2782,-0.2814,-0.2837,-0.2828,-0.284,-0.2823,-0.2885,-0.2863,-0.2864,-0.2837,-0.2793,-0.2876,-0.2691,-0.2684,-0.2607,-0.2573,-0.2492,-0.2306,-0.2618,-0.2616,-0.2614,0,-0.2544,-0.2567,-0.2574,-0.2602,-0.2612,-0.2642,-0.2647,-0.2683,-0.2709,-0.2721,-0.2722,-0.2735,-0.2722,-0.2772,-0.2709,-0.2756,-0.2724,-0.2703,-0.2695,-0.2587,-0.2582,-0.2341,-0.2268,-0.2261,-0.2592,-0.2594,-0.2595,0,-0.2402,-0.2472,-0.2455,-0.2474,-0.2546,-0.2548,-0.2581,-0.2622,-0.2622,-0.2627,-0.2611,-0.2615,-0.2582,-0.2573,-0.2582,-0.2627,-0.2491,-0.2537,-0.242,-0.2413,-0.2285,-0.227,-0.2171,-0.2462,-0.2462,-0.2463,-0.2463,0,-0.231,-0.2288,-0.2382,-0.2364,-0.2342,-0.2427,-0.2398,-0.2441,-0.2471,-0.2451,-0.2523,-0.2489,-0.2534,-0.2493,-0.2512,-0.2409,-0.2424,-0.2385,-0.2352,-0.2304,-0.2293,-0.2234,-0.227,-0.2455,-0.2457,-0.2458,-0.246,0,-0.2129,-0.2195,-0.2177,-0.2249,-0.2264,-0.2237,-0.2297,-0.2284,-0.2327,-0.23,-0.2294,-0.2347,-0.2299,-0.232,-0.2273,-0.2272,-0.2161,-0.2169,-0.2095,-0.2057,-0.1951,-0.1993,-0.1814,-0.1762,-0.198,-0.1977,-0.1974,0,-0.2033,-0.2006,-0.2068,-0.2066,-0.2097,-0.2093,-0.2102,-0.2182,-0.2187,-0.2211,-0.2186,-0.2147,-0.2128,-0.2022,-0.2009,-0.1946,-0.2001,-0.182,-0.1907,-0.1896,-0.1919,-0.1961,-0.1935,-0.175,-0.1746,-0.1742,-0.174,0,-0.1859,-0.1893,-0.1901,-0.1901,-0.191,-0.1919,-0.1943,-0.1931,-0.2021,-0.2009,-0.1997,-0.1976,-0.1901,-0.1818,-0.1742,-0.1715,-0.1775,-0.1744,-0.1753,-0.173,-0.1745,-0.1696,-0.1918,-0.1709,-0.1712,-0.1714,-0.1716,-0.1717,-0.174,-0.1719,-0.1751,-0.174,-0.1755,-0.1753,-0.1716,-0.1768,-0.1757,-0.1746,-0.1799,-0.1746,-0.1701,-0.1594,-0.1548,-0.1447,-0.1528,-0.1433,-0.1477,-0.1513,-0.1489,-0.1625,-0.1386,-0.1387,-0.1388,-0.1389,-0.139,0,-0.1605,-0.1608,-0.1594,-0.1595,-0.1563,-0.1616,-0.162,-0.1579,-0.1541,-0.1568,-0.1546,-0.1514,-0.1409,-0.1385,-0.1296,-0.1225,-0.1221,-0.12,-0.1259,-0.1241,-0.1353,-0.1373,-0.1097,-0.1097,-0.1097,-0.1097,-0.1097,-0.1097,-0.1538,-0.1488,-0.1493,-0.1412,-0.1408,-0.1336,-0.1315,-0.1282,-0.1282,-0.1241,-0.1246,-0.1283,-0.1277,-0.1328,-0.1215,-0.1142,-0.1138,-0.1078,-0.1114,-0.1242,-0.1269,-0.1295,-0.1322,-0.104,-0.104,-0.096,-0.096,-0.096]},{"header":{"parameterUnit":"m.s-1","parameterCategory":2,"la1":30.2991,"la2":30.254,"lo1":-89.0895,"lo2":-89.0444,"dy":0.0017,"dx":0.0017,"nx":28,"ny":28,"refTime":"2026-02-26T09:00:00:Z","depth":"0","parameterNumber":3,"parameterNumberName":"V-component_of_CURRENTS"},"data":[0,0,0,0,0,0,0,0,0,0,0,0,0,0,0,0,0,0,0,0,0,0,0,0,0,0,0,0,0,0,0,0,0,0,0,0,0,0,0,0,0,0,0,0,0,0,0,0,0,0,0,0,0,0,0,0,0,0,-0.0549,-0.0549,0,-0.0537,-0.0537,-0.0537,-0.0485,-0.0484,-0.0483,-0.0482,-0.0421,-0.0421,-0.042,0,0,0,0,0,0,0,0,0,0,0,0,0,-0.0524,-0.0524,-0.0549,-0.0549,-0.0549,-0.0537,-0.0537,-0.0537,-0.0485,-0.0484,-0.0483,-0.0481,-0.0422,-0.0421,-0.042,0,0,0,0,0,0,0,0,0,0,0,0,0,-0.0524,-0.0524,-0.0549,-0.0523,-0.0521,-0.0537,-0.0537,-0.0537,-0.0485,-0.0484,-0.0482,-0.0481,-0.0422,-0.0421,-0.042,-0.0447,0,0,-0.0417,-0.0417,0,0,0,0,0,0,0,0,-0.0524,-0.0525,-0.0527,-0.0525,-0.0522,-0.0512,-0.0506,-0.0505,-0.0486,-0.0497,-0.0482,-0.048,-0.045,-0.0446,-0.0446,-0.0444,-0.0441,-0.0417,-0.0417,-0.0416,-0.0416,0,0,0,0,0,0,0,-0.0524,-0.0525,-0.0543,-0.0527,-0.0524,-0.0511,-0.0509,-0.0505,-0.0481,-0.0496,-0.0493,-0.0494,-0.0447,-0.0447,-0.0444,-0.0441,-0.0417,-0.0417,-0.0416,-0.0416,-0.0423,-0.0424,0,0,0,0,0,0,-0.0531,-0.0526,-0.0544,-0.0543,-0.0521,-0.0513,-0.051,-0.0516,-0.0482,-0.0476,-0.0496,-0.0492,-0.045,-0.0445,-0.0442,-0.0447,-0.0416,-0.0416,-0.0415,-0.0422,-0.0423,-0.0424,0,0,0,0,0,0,-0.053,-0.0533,-0.0544,-0.0534,-0.0535,-0.0515,-0.0521,-0.0517,-0.0511,-0.0482,-0.0474,-0.0494,-0.0448,-0.0443,-0.0452,-0.0445,-0.0415,-0.0414,-0.0421,-0.0423,-0.0424,-0.0473,0,0,0,0,0,0,-0.053,-0.0533,-0.0538,-0.0535,-0.0536,-0.0553,-0.0523,-0.0518,-0.0515,-0.051,-0.0478,-0.0471,-0.0447,-0.0454,-0.0451,-0.0443,-0.0414,-0.0421,-0.0422,-0.0423,-0.0471,-0.0476,-0.048,0,0,0,0,0,-0.0529,-0.0546,-0.0539,-0.0541,-0.0544,-0.0554,-0.0553,-0.0532,-0.0517,-0.052,-0.051,-0.0472,-0.0459,-0.0455,-0.0452,-0.0443,-0.042,-0.0422,-0.0423,-0.0468,-0.0475,-0.048,0,0,0,0,0,0,-0.054,-0.0542,-0.0534,-0.0551,-0.0552,-0.0546,-0.055,-0.0539,-0.0535,-0.0529,-0.0498,-0.0492,-0.0492,-0.0471,-0.0467,-0.0449,-0.0427,-0.0428,-0.0462,-0.0468,-0.0473,-0.046,-0.0413,0,0,0,0,0,-0.0546,-0.0557,-0.0557,-0.0571,-0.0572,-0.0563,-0.0564,-0.0553,-0.055,-0.0545,-0.0525,-0.0507,-0.0499,-0.0488,-0.0479,-0.0481,-0.0432,-0.0468,-0.0473,-0.0477,-0.0465,-0.041,-0.0409,-0.043,-0.043,-0.0429,0,0,-0.0556,-0.0559,-0.0565,-0.0574,-0.0571,-0.0583,-0.0559,-0.0566,-0.0568,-0.0542,-0.054,-0.053,-0.0508,-0.0507,-0.0502,-0.0485,-0.0446,-0.0479,-0.0483,-0.0468,-0.0412,-0.0409,-0.0407,-0.0431,-0.043,-0.043,0,0,-0.0586,-0.0583,-0.0602,-0.0604,-0.0607,-0.0602,-0.0606,-0.0602,-0.0587,-0.06,-0.0576,-0.0568,-0.0558,-0.0534,-0.0523,-0.0552,-0.048,-0.0542,-0.0547,-0.0495,-0.0492,-0.0489,-0.0421,-0.0412,-0.0536,-0.0536,-0.0536,0,-0.0598,-0.0618,-0.0609,-0.0627,-0.063,-0.0612,-0.0631,-0.0622,-0.062,-0.061,-0.0603,-0.058,-0.0566,-0.055,-0.0559,-0.0559,-0.0512,-0.0527,-0.05,-0.0496,-0.0491,-0.0422,-0.0411,-0.0538,-0.0538,-0.0538,-0.0538,0,-0.0643,-0.0653,-0.0665,-0.0677,-0.0681,-0.0695,-0.0682,-0.0676,-0.0662,-0.0649,-0.0632,-0.0617,-0.0593,-0.059,-0.0586,-0.055,-0.052,-0.0519,-0.0482,-0.0492,-0.0419,-0.0406,-0.0542,-0.0541,-0.054,-0.054,0,0,-0.0683,-0.0694,-0.0697,-0.0699,-0.0705,-0.0711,-0.0713,-0.0705,-0.069,-0.0678,-0.0653,-0.0649,-0.0624,-0.0609,-0.0589,-0.0546,-0.0488,-0.0521,-0.0517,-0.0447,-0.0352,-0.0318,-0.0301,-0.0478,-0.0477,-0.0475,-0.0311,0,-0.0718,-0.0752,-0.075,-0.0771,-0.0781,-0.0761,-0.0759,-0.0745,-0.0724,-0.0693,-0.0657,-0.0634,-0.0634,-0.0615,-0.0577,-0.0512,-0.0457,-0.0531,-0.0357,-0.0351,-0.0315,-0.0286,-0.0262,-0.0113,-0.0298,-0.0296,-0.0294,0,-0.0757,-0.0772,-0.0801,-0.0795,-0.0798,-0.0807,-0.0783,-0.0779,-0.0734,-0.0711,-0.0677,-0.0642,-0.0585,-0.0581,-0.0456,-0.0501,-0.0429,-0.0373,-0.0366,-0.0304,-0.0294,-0.0133,-0.0082,0.0033,-0.0274,-0.0276,-0.0277,0,-0.0773,-0.0799,-0.0817,-0.0822,-0.0822,-0.0821,-0.0816,-0.0785,-0.077,-0.0712,-0.0687,-0.0619,-0.057,-0.0482,-0.0384,-0.0409,-0.0229,-0.0247,-0.0141,-0.0137,-0.0066,-0.0059,0.0124,-0.0144,-0.0144,-0.0144,-0.0145,0,-0.0798,-0.0809,-0.0824,-0.0832,-0.0847,-0.0835,-0.083,-0.0811,-0.0771,-0.0749,-0.0693,-0.0649,-0.0542,-0.0438,-0.0356,-0.02,-0.0201,-0.012,-0.0088,-0.0084,-0.008,0.0062,0.0099,-0.0138,-0.014,-0.0141,-0.0142,0,-0.0802,-0.0814,-0.0836,-0.0849,-0.0853,-0.086,-0.0854,-0.0847,-0.0801,-0.0764,-0.0744,-0.0648,-0.051,-0.039,-0.0223,-0.0152,0.0068,0.0038,0.0045,0.0073,0.0258,0.0289,0.052,0.059,0.0191,0.0193,0.0195,0,-0.0805,-0.0817,-0.0852,-0.0875,-0.0883,-0.0892,-0.09,-0.0868,-0.0858,-0.0767,-0.0749,-0.0606,-0.0512,-0.0245,-0.0082,0.0109,0.0175,0.0245,0.0191,0.0299,0.0357,0.0377,0.0419,0.0276,0.0278,0.028,0.0281,0,-0.0812,-0.0826,-0.0852,-0.0902,-0.0925,-0.0944,-0.0947,-0.0942,-0.0892,-0.0839,-0.0745,-0.0654,-0.0399,-0.0174,0.0076,0.0183,0.0337,0.0286,0.0403,0.0454,0.0485,0.0556,0.0145,0.0297,0.0295,0.0294,0.0293,0.0293,-0.0819,-0.0848,-0.0889,-0.0931,-0.0965,-0.099,-0.099,-0.0974,-0.0936,-0.0834,-0.0754,-0.0577,-0.026,0.0092,0.0225,0.0519,0.0479,0.0591,0.0629,0.0645,0.069,0.0318,0.0489,0.0488,0.0488,0.0488,0.0487,0,-0.0829,-0.0867,-0.0916,-0.0969,-0.1007,-0.1013,-0.1017,-0.0988,-0.0931,-0.0811,-0.0695,-0.0334,-0.0013,0.0289,0.0683,0.0847,0.0873,0.0928,0.0966,0.0997,0.0687,0.0666,0.0875,0.0875,0.0875,0.0875,0.0874,0.0874,-0.0838,-0.0886,-0.0917,-0.0988,-0.1024,-0.1042,-0.1038,-0.0972,-0.0874,-0.0643,-0.0425,-0.0258,0.0159,0.0764,0.1132,0.1167,0.1299,0.1295,0.1366,0.1144,0.1114,0.1086,0.1077,0.1369,0.1369,0.1661,0.1664,0.1666]}],[{"header":{"parameterUnit":"m.s-1","parameterCategory":2,"la1":30.2991,"la2":30.254,"lo1":-89.0895,"lo2":-89.0444,"dy":0.0017,"dx":0.0017,"nx":28,"ny":28,"refTime":"2026-02-26T09:00:00:Z","depth":"2","parameterNumber":2,"parameterNumberName":"U-component_of_CURRENTS"},"data":[0,0,0,0,0,0,0,0,0,0,0,0,0,0,0,0,0,0,0,0,0,0,0,0,0,0,0,0,0,0,0,0,0,0,0,0,0,0,0,0,0,0,0,0,0,0,0,0,0,0,0,0,0,0,0,0,0,0,-0.1764,-0.1764,0,-0.1757,-0.1757,-0.1756,-0.1714,-0.1714,-0.1713,-0.1713,-0.1707,-0.1708,-0.1708,0,0,0,0,0,0,0,0,0,0,0,0,0,-0.1755,-0.1754,-0.1764,-0.1764,-0.1765,-0.1757,-0.1757,-0.1756,-0.1714,-0.1714,-0.1713,-0.1712,-0.1707,-0.1708,-0.1708,0,0,0,0,0,0,0,0,0,0,0,0,0,-0.175,-0.1754,-0.1764,-0.1746,-0.1745,-0.1757,-0.1757,-0.1756,-0.1715,-0.1714,-0.1713,-0.1712,-0.1707,-0.1708,-0.1708,-0.173,0,0,-0.171,-0.171,0,0,0,0,0,0,0,0,-0.175,-0.175,-0.1749,-0.1748,-0.1746,-0.174,-0.1752,-0.1749,-0.1715,-0.1721,-0.1713,-0.1712,-0.1722,-0.1721,-0.1715,-0.173,-0.173,-0.171,-0.1711,-0.1711,-0.1711,0,0,0,0,0,0,0,-0.1751,-0.175,-0.1757,-0.1749,-0.1748,-0.1744,-0.1742,-0.1751,-0.1723,-0.1721,-0.1719,-0.1726,-0.1721,-0.1715,-0.1715,-0.1729,-0.171,-0.1711,-0.1711,-0.1711,-0.1748,-0.1749,0,0,0,0,0,0,-0.1761,-0.175,-0.1757,-0.1757,-0.1751,-0.1745,-0.1742,-0.1739,-0.1723,-0.1721,-0.1726,-0.1724,-0.1714,-0.1714,-0.1715,-0.1737,-0.1711,-0.1711,-0.1712,-0.1748,-0.1748,-0.1749,0,0,0,0,0,0,-0.1761,-0.1761,-0.1757,-0.1758,-0.1757,-0.1747,-0.1743,-0.1739,-0.1741,-0.1728,-0.1725,-0.1733,-0.1714,-0.1714,-0.1722,-0.1736,-0.1712,-0.1712,-0.1747,-0.1748,-0.1749,-0.1782,0,0,0,0,0,0,-0.176,-0.1761,-0.1759,-0.1758,-0.1758,-0.1772,-0.1744,-0.174,-0.1749,-0.1745,-0.1733,-0.1731,-0.1713,-0.1721,-0.1723,-0.1737,-0.1713,-0.1746,-0.1747,-0.1748,-0.178,-0.1784,-0.1787,0,0,0,0,0,-0.176,-0.1761,-0.1758,-0.1759,-0.1756,-0.1774,-0.1773,-0.1759,-0.175,-0.1756,-0.1742,-0.1732,-0.1729,-0.1722,-0.1724,-0.1738,-0.1746,-0.1747,-0.1748,-0.1779,-0.1783,-0.1787,0,0,0,0,0,0,-0.1751,-0.1757,-0.1754,-0.1755,-0.1769,-0.1768,-0.1773,-0.1771,-0.1765,-0.1761,-0.1743,-0.174,-0.1748,-0.1744,-0.1737,-0.1752,-0.1735,-0.1737,-0.1758,-0.1762,-0.1766,-0.1779,-0.1713,0,0,0,0,0,-0.1752,-0.1756,-0.1766,-0.177,-0.1779,-0.1781,-0.1786,-0.1783,-0.1782,-0.1778,-0.1769,-0.1761,-0.1756,-0.176,-0.1752,-0.1771,-0.1763,-0.1781,-0.1784,-0.1787,-0.1799,-0.1805,-0.1811,-0.1753,-0.1753,-0.1753,0,0,-0.1753,-0.1757,-0.1759,-0.177,-0.1777,-0.1793,-0.178,-0.1798,-0.1807,-0.1781,-0.1786,-0.1774,-0.1762,-0.1768,-0.1773,-0.1768,-0.1795,-0.1789,-0.1792,-0.1802,-0.1808,-0.1813,-0.1818,-0.1754,-0.1754,-0.1754,0,0,-0.1761,-0.1761,-0.1769,-0.1784,-0.1804,-0.1809,-0.1821,-0.1829,-0.1826,-0.1837,-0.1814,-0.1815,-0.1812,-0.1803,-0.18,-0.1826,-0.1809,-0.1824,-0.186,-0.1865,-0.187,-0.1875,-0.1851,-0.1854,-0.1831,-0.1831,-0.1831,0,-0.176,-0.177,-0.1777,-0.1792,-0.1806,-0.1821,-0.1839,-0.1845,-0.1853,-0.1857,-0.1843,-0.1839,-0.1828,-0.184,-0.1841,-0.1835,-0.1827,-0.1843,-0.1871,-0.1875,-0.1879,-0.1854,-0.1856,-0.1833,-0.1832,-0.1832,-0.1832,0,-0.1774,-0.1788,-0.1799,-0.1819,-0.1835,-0.1859,-0.1875,-0.1889,-0.189,-0.1894,-0.1904,-0.1888,-0.1886,-0.1883,-0.187,-0.1895,-0.1874,-0.187,-0.186,-0.1886,-0.1858,-0.186,-0.1835,-0.1834,-0.1834,-0.1834,0,0,-0.1757,-0.1798,-0.1804,-0.182,-0.1853,-0.1868,-0.1894,-0.192,-0.1937,-0.1941,-0.1955,-0.1951,-0.1946,-0.1942,-0.1929,-0.194,-0.1948,-0.1923,-0.1922,-0.1901,-0.1943,-0.1859,-0.1852,-0.1951,-0.1952,-0.1953,-0.1905,0,-0.1766,-0.1797,-0.1817,-0.1854,-0.1873,-0.1899,-0.1922,-0.1947,-0.1959,-0.1977,-0.1977,-0.1981,-0.1968,-0.1965,-0.1977,-0.1953,-0.1957,-0.196,-0.1921,-0.192,-0.1843,-0.1853,-0.1722,-0.1663,-0.1906,-0.1907,-0.1907,0,-0.1769,-0.179,-0.1822,-0.1871,-0.1882,-0.1904,-0.1944,-0.1969,-0.2002,-0.201,-0.2026,-0.2023,-0.2033,-0.2017,-0.2007,-0.201,-0.1985,-0.1968,-0.1966,-0.1881,-0.1839,-0.168,-0.1656,-0.1909,-0.1908,-0.1908,-0.1908,0,-0.1743,-0.1796,-0.1819,-0.1836,-0.1888,-0.1906,-0.1935,-0.1974,-0.1986,-0.203,-0.2032,-0.2057,-0.2043,-0.2045,-0.2001,-0.201,-0.1978,-0.198,-0.1881,-0.1873,-0.1751,-0.1731,-0.1981,-0.1981,-0.1981,-0.1981,-0.1982,0,-0.1737,-0.1755,-0.181,-0.182,-0.1843,-0.1894,-0.1917,-0.1951,-0.1992,-0.1997,-0.2042,-0.2031,-0.2052,-0.2029,-0.201,-0.1934,-0.198,-0.1887,-0.1862,-0.1755,-0.1737,-0.1948,-0.1945,-0.198,-0.198,-0.198,-0.1981,0,-0.1685,-0.1732,-0.1752,-0.1809,-0.1824,-0.1835,-0.188,-0.1895,-0.1952,-0.1956,-0.1965,-0.2,-0.1972,-0.1969,-0.1949,-0.1912,-0.1872,-0.1834,-0.1691,-0.165,-0.1763,-0.1762,-0.1729,-0.1725,-0.1723,-0.172,-0.1719,0,-0.1654,-0.1661,-0.1712,-0.1715,-0.1734,-0.1762,-0.1774,-0.1849,-0.1862,-0.1915,-0.1904,-0.1904,-0.1866,-0.1806,-0.1758,-0.1703,-0.1777,-0.155,-0.1552,-0.1761,-0.174,-0.1744,-0.1746,-0.1393,-0.1388,-0.1385,-0.1382,0,-0.1574,-0.1596,-0.1609,-0.162,-0.1633,-0.1647,-0.1678,-0.1684,-0.1764,-0.1772,-0.1771,-0.1754,-0.1703,-0.1585,-0.1523,-0.1479,-0.1556,-0.1473,-0.1729,-0.1479,-0.1441,-0.1421,-0.1436,-0.1349,-0.1353,-0.1355,-0.1357,-0.1358,-0.1494,-0.1482,-0.1505,-0.1502,-0.1521,-0.1522,-0.1497,-0.1541,-0.1543,-0.1541,-0.1595,-0.153,-0.1516,-0.1349,-0.127,-0.1217,-0.133,-0.1283,-0.1296,-0.1312,-0.1283,-0.1243,-0.1108,-0.1109,-0.1111,-0.1112,-0.1113,0,-0.1387,-0.1389,-0.1383,-0.1384,-0.1359,-0.1409,-0.1416,-0.1376,-0.134,-0.1362,-0.1341,-0.1195,-0.1112,-0.1106,-0.097,-0.0938,-0.0946,-0.0901,-0.0921,-0.0953,-0.0981,-0.0938,-0.067,-0.0668,-0.0667,-0.0666,0,0,-0.133,-0.1291,-0.1291,-0.1219,-0.1217,-0.1151,-0.113,-0.1094,-0.1085,-0.1018,-0.0989,-0.1066,-0.108,-0.0887,-0.083,-0.0729,-0.0836,-0.0688,-0.1044,-0.1099,-0.1126,-0.1197,-0.1166,0,0,0,0,0]},{"header":{"parameterUnit":"m.s-1","parameterCategory":2,"la1":30.2991,"la2":30.254,"lo1":-89.0895,"lo2":-89.0444,"dy":0.0017,"dx":0.0017,"nx":28,"ny":28,"refTime":"2026-02-26T09:00:00:Z","depth":"2","parameterNumber":3,"parameterNumberName":"V-component_of_CURRENTS"},"data":[0,0,0,0,0,0,0,0,0,0,0,0,0,0,0,0,0,0,0,0,0,0,0,0,0,0,0,0,0,0,0,0,0,0,0,0,0,0,0,0,0,0,0,0,0,0,0,0,0,0,0,0,0,0,0,0,0,0,-0.0174,-0.0174,0,-0.0117,-0.0116,-0.0116,-0.0079,-0.0079,-0.0079,-0.0079,0.0032,0.0034,0.0037,0,0,0,0,0,0,0,0,0,0,0,0,0,-0.0198,-0.0198,-0.0174,-0.0174,-0.0173,-0.0117,-0.0116,-0.0115,-0.0079,-0.0079,-0.0079,-0.0079,0.0031,0.0034,0.0038,0,0,0,0,0,0,0,0,0,0,0,0,0,-0.0168,-0.0198,-0.0175,-0.0149,-0.0147,-0.0117,-0.0116,-0.0115,-0.0079,-0.0079,-0.0079,-0.0079,0.003,0.0034,0.0038,0.0062,0,0,0.0051,0.0053,0,0,0,0,0,0,0,0,-0.017,-0.0167,-0.0154,-0.0151,-0.0148,-0.0106,-0.0084,-0.0054,-0.0079,-0.0103,-0.0079,-0.0079,-0.0011,-0.0003,0.0009,0.0067,0.0072,0.0052,0.0054,0.0056,0.0057,0,0,0,0,0,0,0,-0.0172,-0.0169,-0.015,-0.0153,-0.015,-0.0123,-0.0119,-0.0078,-0.0056,-0.0101,-0.0099,-0.0095,-0.0009,0.0005,0.0012,0.0074,0.0051,0.0055,0.0058,0.006,0.0157,0.0157,0,0,0,0,0,0,-0.0185,-0.0171,-0.0152,-0.0149,-0.0161,-0.0123,-0.0118,-0.0119,-0.0058,-0.0049,-0.0095,-0.0093,-0.0003,0.0007,0.0016,0.0044,0.0056,0.006,0.0062,0.0157,0.0157,0.0157,0,0,0,0,0,0,-0.0186,-0.0184,-0.0154,-0.0159,-0.0154,-0.0123,-0.0124,-0.0118,-0.0105,-0.0054,-0.0044,-0.0089,-0.0002,0.001,0.0047,0.0049,0.0062,0.0066,0.0157,0.0157,0.0157,0.0103,0,0,0,0,0,0,-0.0187,-0.0185,-0.0188,-0.0161,-0.0154,-0.0145,-0.0124,-0.0117,-0.0104,-0.0101,-0.0046,-0.0035,-0.0001,0.004,0.0051,0.0055,0.0069,0.0157,0.0157,0.0157,0.0105,0.0101,0.0098,0,0,0,0,0,-0.0188,-0.0197,-0.0189,-0.0186,-0.0161,-0.0145,-0.014,-0.0115,-0.0104,-0.0103,-0.0065,-0.0037,0.0048,0.0043,0.0056,0.0062,0.0157,0.0157,0.0157,0.0106,0.0102,0.0098,0,0,0,0,0,0,-0.0209,-0.0193,-0.0184,-0.0187,-0.0171,-0.014,-0.0137,-0.0119,-0.0089,-0.0085,-0.0035,-0.0022,0.001,0.0043,0.0037,0.0089,0.0107,0.0109,0.0064,0.006,0.0057,0.004,0.0073,0,0,0,0,0,-0.0216,-0.0218,-0.0197,-0.0199,-0.0195,-0.0166,-0.0156,-0.0141,-0.0112,-0.0099,-0.006,-0.0017,0.0021,0.0045,0.0081,0.0113,0.0139,0.0124,0.0121,0.0118,0.0113,0.0145,0.0144,0.0157,0.0157,0.0157,0,0,-0.0225,-0.0216,-0.0217,-0.0204,-0.0189,-0.0187,-0.0159,-0.0151,-0.0144,-0.009,-0.0067,-0.0028,0.0026,0.0057,0.0075,0.0086,0.0129,0.0118,0.0115,0.0112,0.0145,0.0144,0.0143,0.0157,0.0157,0.0157,0,0,-0.0247,-0.0237,-0.0247,-0.0238,-0.0224,-0.0204,-0.0205,-0.0177,-0.0161,-0.0134,-0.0094,-0.0056,0.0002,0.0039,0.0067,0.0069,0.0107,0.0081,0.0057,0.0088,0.0087,0.0086,0.0118,0.0121,0.0083,0.0083,0.0083,0,-0.0259,-0.0269,-0.0247,-0.0255,-0.0252,-0.0216,-0.0226,-0.0203,-0.0165,-0.015,-0.0135,-0.0051,-0.0006,0.0036,0.0037,0.0062,0.0083,0.0066,0.0082,0.0082,0.0082,0.0116,0.0119,0.008,0.0081,0.0081,0.0081,0,-0.0288,-0.0296,-0.0302,-0.03,-0.0291,-0.0295,-0.0265,-0.0249,-0.0222,-0.0194,-0.0152,-0.0092,-0.0043,-0.002,0.0012,0.0039,0.0054,0.007,0.0088,0.0078,0.0114,0.0118,0.0077,0.0077,0.0078,0.0079,0,0,-0.0324,-0.0324,-0.0328,-0.0338,-0.0318,-0.0317,-0.0302,-0.0279,-0.0271,-0.0223,-0.0206,-0.0135,-0.0103,-0.007,-0.0024,0.0009,0.0035,0.0035,0.0038,0.006,0.0101,0.0124,0.0132,0.0048,0.0049,0.0049,0.0125,0,-0.0357,-0.0387,-0.037,-0.0394,-0.0408,-0.0372,-0.0363,-0.0334,-0.0298,-0.027,-0.0202,-0.0167,-0.0121,-0.01,-0.0061,0.0011,0.0044,0.0013,0.0115,0.0118,0.0134,0.0137,0.0127,0.0194,0.013,0.0131,0.0132,0,-0.0398,-0.0412,-0.0443,-0.0448,-0.0451,-0.0452,-0.0433,-0.0419,-0.0365,-0.0336,-0.0285,-0.0233,-0.0169,-0.0136,-0.0025,-0.005,0.0017,0.0073,0.0077,0.012,0.015,0.0196,0.0206,0.014,0.0139,0.0139,0.0138,0,-0.0446,-0.0465,-0.0492,-0.0496,-0.049,-0.0493,-0.0483,-0.0442,-0.043,-0.0378,-0.0359,-0.028,-0.0234,-0.0149,-0.0026,-0.003,0.0094,0.0107,0.0192,0.0195,0.0217,0.0221,0.0177,0.0177,0.0177,0.0177,0.0177,0,-0.0494,-0.0517,-0.052,-0.0538,-0.0566,-0.0544,-0.0555,-0.0531,-0.0493,-0.0476,-0.04,-0.0362,-0.0237,-0.0145,-0.0044,0.0092,0.0084,0.0189,0.0216,0.0199,0.02,0.0178,0.0177,0.018,0.0179,0.0178,0.0178,0,-0.0542,-0.0545,-0.0579,-0.0587,-0.0592,-0.0612,-0.0606,-0.0608,-0.0566,-0.054,-0.0526,-0.0419,-0.0297,-0.0165,-0.0013,0.0075,0.0198,0.0248,0.0221,0.0244,0.0281,0.0276,0.0344,0.0345,0.0347,0.0348,0.0349,0,-0.0568,-0.0591,-0.062,-0.0644,-0.0649,-0.067,-0.068,-0.065,-0.0642,-0.0566,-0.0553,-0.0435,-0.0333,-0.0103,0.0063,0.0239,0.024,0.0328,0.0323,0.0278,0.0298,0.0292,0.0285,0.0335,0.0336,0.0337,0.0337,0,-0.0609,-0.0618,-0.0644,-0.0695,-0.0721,-0.0744,-0.0751,-0.0755,-0.0706,-0.0662,-0.0576,-0.0491,-0.0268,-0.007,0.015,0.0253,0.0296,0.0346,0.0313,0.029,0.0275,0.0293,0.0286,0.0342,0.0342,0.0341,0.0341,0.0341,-0.063,-0.0662,-0.0696,-0.0741,-0.0776,-0.0804,-0.0813,-0.0794,-0.0766,-0.0675,-0.0594,-0.0433,-0.0257,0.0068,0.022,0.0364,0.036,0.0403,0.04,0.0396,0.0377,0.0364,0.0444,0.0444,0.0445,0.0445,0.0445,0,-0.0653,-0.0687,-0.0736,-0.079,-0.0831,-0.0836,-0.0846,-0.0824,-0.0774,-0.0659,-0.0546,-0.0332,-0.0108,0.0075,0.0307,0.0437,0.0424,0.0458,0.0415,0.041,0.0405,0.0384,0.0456,0.0456,0.0456,0.0457,0,0,-0.0666,-0.0714,-0.0741,-0.0815,-0.0853,-0.088,-0.088,-0.0823,-0.0733,-0.0604,-0.0469,-0.0305,-0.0087,0.0078,0.0238,0.0358,0.0351,0.0369,0.0349,0.0276,0.0269,0.0366,0.0327,0,0,0,0,0]}],[{"header":{"parameterUnit":"m.s-1","parameterCategory":2,"la1":30.2991,"la2":30.254,"lo1":-89.0895,"lo2":-89.0444,"dy":0.0017,"dx":0.0017,"nx":28,"ny":28,"refTime":"2026-02-26T09:00:00:Z","depth":"4","parameterNumber":2,"parameterNumberName":"U-component_of_CURRENTS"},"data":[0,0,0,0,0,0,0,0,0,0,0,0,0,0,0,0,0,0,0,0,0,0,0,0,0,0,0,0,0,0,0,0,0,0,0,0,0,0,0,0,0,0,0,0,0,0,0,0,0,0,0,0,0,0,0,0,0,0,-0.1172,-0.1173,0,-0.1202,-0.1202,-0.1202,-0.1217,-0.1218,-0.1218,-0.1218,-0.1259,-0.126,-0.1261,0,0,0,0,0,0,0,0,0,0,0,0,0,-0.114,-0.114,-0.1172,-0.1173,-0.1173,-0.1202,-0.1202,-0.1202,-0.1217,-0.1218,-0.1218,-0.1218,-0.1259,-0.126,-0.1261,0,0,0,0,0,0,0,0,0,0,0,0,0,-0.1159,-0.114,-0.1172,-0.1185,-0.1186,-0.1202,-0.1202,-0.1202,-0.1217,-0.1218,-0.1218,-0.1218,-0.1258,-0.126,-0.1261,-0.1268,0,0,-0.1266,-0.1267,0,0,0,0,0,0,0,0,-0.1158,-0.116,-0.1183,-0.1184,-0.1186,-0.1207,-0.1206,-0.1225,-0.1217,-0.1205,-0.1218,-0.1218,-0.1243,-0.1246,-0.125,-0.127,-0.1271,-0.1266,-0.1267,-0.1268,-0.1268,0,0,0,0,0,0,0,-0.1156,-0.1159,-0.1183,-0.1183,-0.1185,-0.1193,-0.1195,-0.1209,-0.1222,-0.1206,-0.1207,-0.1212,-0.1244,-0.1248,-0.1251,-0.1272,-0.1266,-0.1267,-0.1268,-0.1269,-0.1349,-0.135,0,0,0,0,0,0,-0.1154,-0.1158,-0.1182,-0.1184,-0.1173,-0.1193,-0.1196,-0.1199,-0.1222,-0.1226,-0.1212,-0.1213,-0.1246,-0.1249,-0.1252,-0.1309,-0.1268,-0.1269,-0.127,-0.1348,-0.1349,-0.1351,0,0,0,0,0,0,-0.1153,-0.1156,-0.1181,-0.1172,-0.1176,-0.1194,-0.1197,-0.12,-0.122,-0.1226,-0.123,-0.1231,-0.1246,-0.125,-0.1282,-0.1308,-0.127,-0.1271,-0.1346,-0.1348,-0.135,-0.139,0,0,0,0,0,0,-0.1152,-0.1155,-0.1166,-0.1172,-0.1177,-0.1202,-0.1197,-0.12,-0.1222,-0.1224,-0.1244,-0.1247,-0.1246,-0.128,-0.1284,-0.131,-0.1272,-0.1345,-0.1347,-0.1349,-0.1387,-0.1393,-0.1398,0,0,0,0,0,-0.1151,-0.1158,-0.1166,-0.1169,-0.1187,-0.1203,-0.1206,-0.1218,-0.1223,-0.1236,-0.1252,-0.1247,-0.1297,-0.1282,-0.1286,-0.1313,-0.1344,-0.1347,-0.1349,-0.1385,-0.1392,-0.1398,0,0,0,0,0,0,-0.1148,-0.1161,-0.1169,-0.1181,-0.1198,-0.1206,-0.1221,-0.1229,-0.1251,-0.1259,-0.1262,-0.1266,-0.1304,-0.1304,-0.1288,-0.1344,-0.132,-0.1324,-0.1346,-0.1353,-0.1358,-0.1359,-0.1274,0,0,0,0,0,-0.1153,-0.1163,-0.1178,-0.119,-0.1201,-0.1215,-0.1227,-0.1237,-0.1253,-0.1264,-0.128,-0.1298,-0.1316,-0.1331,-0.1346,-0.1377,-0.1368,-0.1398,-0.1403,-0.1408,-0.1412,-0.1424,-0.143,-0.136,-0.136,-0.136,0,0,-0.1155,-0.1164,-0.117,-0.1191,-0.1205,-0.1227,-0.1223,-0.1247,-0.127,-0.1265,-0.1307,-0.1319,-0.1329,-0.1363,-0.1381,-0.1369,-0.1422,-0.1411,-0.1415,-0.1416,-0.1427,-0.1434,-0.144,-0.1362,-0.1361,-0.1361,0,0,-0.1162,-0.1174,-0.1189,-0.1206,-0.1234,-0.1245,-0.1257,-0.1281,-0.13,-0.1336,-0.134,-0.1369,-0.1399,-0.1412,-0.142,-0.1466,-0.145,-0.1474,-0.1504,-0.1516,-0.1522,-0.1527,-0.1518,-0.1521,-0.1477,-0.1478,-0.1478,0,-0.1168,-0.1187,-0.1197,-0.1218,-0.1238,-0.1257,-0.1283,-0.1303,-0.1337,-0.1358,-0.1357,-0.1413,-0.1421,-0.1461,-0.1476,-0.1479,-0.1474,-0.1477,-0.1523,-0.1527,-0.1532,-0.1521,-0.1525,-0.148,-0.148,-0.1479,-0.1479,0,-0.1183,-0.121,-0.1221,-0.1255,-0.1277,-0.1303,-0.1331,-0.1362,-0.1387,-0.1406,-0.1458,-0.1473,-0.1503,-0.1514,-0.1509,-0.155,-0.1532,-0.1526,-0.1503,-0.1541,-0.1527,-0.153,-0.1483,-0.1482,-0.1482,-0.1481,0,0,-0.1167,-0.1223,-0.123,-0.126,-0.1302,-0.1321,-0.1365,-0.1408,-0.1443,-0.1478,-0.1521,-0.1556,-0.1566,-0.1576,-0.158,-0.1593,-0.1615,-0.1575,-0.1575,-0.1561,-0.1629,-0.1506,-0.1497,-0.1617,-0.1618,-0.1619,-0.1604,0,-0.1183,-0.1233,-0.1256,-0.1311,-0.1341,-0.1374,-0.1412,-0.1454,-0.1489,-0.1534,-0.1558,-0.1598,-0.1588,-0.1609,-0.1622,-0.162,-0.1627,-0.1619,-0.1599,-0.1598,-0.148,-0.1498,-0.1622,-0.1606,-0.1606,-0.1607,-0.1607,0,-0.119,-0.1226,-0.1283,-0.135,-0.1367,-0.1403,-0.147,-0.1508,-0.1564,-0.1592,-0.1632,-0.1647,-0.168,-0.1662,-0.1676,-0.1672,-0.1655,-0.1646,-0.1645,-0.1519,-0.1481,-0.1563,-0.1612,-0.1612,-0.1612,-0.1611,-0.1611,0,-0.1173,-0.1244,-0.1295,-0.1316,-0.139,-0.1428,-0.147,-0.153,-0.156,-0.163,-0.1652,-0.1697,-0.1712,-0.1714,-0.1688,-0.169,-0.1685,-0.1684,-0.1557,-0.1548,-0.1645,-0.164,-0.169,-0.169,-0.169,-0.169,-0.169,0,-0.1171,-0.1214,-0.1297,-0.1323,-0.1378,-0.1436,-0.1494,-0.1539,-0.1601,-0.1623,-0.168,-0.1688,-0.1726,-0.172,-0.1702,-0.1623,-0.1693,-0.1558,-0.1536,-0.1661,-0.1658,-0.1646,-0.1641,-0.1689,-0.1689,-0.1689,-0.1689,0,-0.1135,-0.1198,-0.1253,-0.1342,-0.1371,-0.1408,-0.1485,-0.1515,-0.159,-0.1619,-0.1638,-0.1686,-0.1671,-0.1681,-0.1675,-0.1617,-0.1574,-0.1529,-0.1649,-0.1635,-0.1428,-0.1426,-0.1393,-0.1388,-0.1385,-0.1381,-0.1379,0,-0.1117,-0.1146,-0.1243,-0.1266,-0.1308,-0.1372,-0.1402,-0.1492,-0.1513,-0.1589,-0.1583,-0.1607,-0.1618,-0.1507,-0.1538,-0.149,-0.147,-0.1443,-0.1448,-0.1416,-0.1399,-0.1403,-0.1406,-0.1373,-0.1372,-0.1371,-0.137,0,-0.1066,-0.1112,-0.115,-0.12,-0.1243,-0.1281,-0.1335,-0.1341,-0.1427,-0.1509,-0.1478,-0.1461,-0.1436,-0.1419,-0.1385,-0.1355,-0.1463,-0.1404,-0.1412,-0.1416,-0.1392,-0.1379,-0.1386,-0.1357,-0.1359,-0.136,-0.1361,0,-0.1014,-0.1022,-0.1075,-0.1105,-0.1157,-0.1166,-0.1212,-0.1227,-0.1261,-0.1353,-0.1333,-0.136,-0.1413,-0.1345,-0.1316,-0.1274,-0.1259,-0.1223,-0.1241,-0.1255,-0.1216,-0.1165,-0.1036,0,0,0,0,0,-0.0951,-0.0948,-0.097,-0.0999,-0.1047,-0.1074,-0.1149,-0.1198,-0.1285,-0.1223,-0.1276,-0.1245,-0.1201,-0.122,-0.1145,-0.1253,-0.1266,-0.1162,-0.1236,-0.1285,-0.13,-0.1265,0,0,0,0,0,0,-0.0907,-0.0929,-0.0933,-0.0901,-0.0897,-0.0936,-0.0978,-0.1042,-0.102,-0.1112,-0.1092,-0.116,-0.1134,-0.1212,-0.1113,-0.1118,-0.1137,-0.1188,-0.1185,-0.1276,-0.129,-0.1302,-0.1271,0,0,0,0,0]},{"header":{"parameterUnit":"m.s-1","parameterCategory":2,"la1":30.2991,"la2":30.254,"lo1":-89.0895,"lo2":-89.0444,"dy":0.0017,"dx":0.0017,"nx":28,"ny":28,"refTime":"2026-02-26T09:00:00:Z","depth":"4","parameterNumber":3,"parameterNumberName":"V-component_of_CURRENTS"},"data":[0,0,0,0,0,0,0,0,0,0,0,0,0,0,0,0,0,0,0,0,0,0,0,0,0,0,0,0,0,0,0,0,0,0,0,0,0,0,0,0,0,0,0,0,0,0,0,0,0,0,0,0,0,0,0,0,0,0,-0.0116,-0.0115,0,-0.0091,-0.0091,-0.0091,-0.0067,-0.0067,-0.0066,-0.0066,0.0002,0.0004,0.0005,0,0,0,0,0,0,0,0,0,0,0,0,0,-0.0116,-0.0116,-0.0116,-0.0115,-0.0115,-0.0091,-0.0091,-0.0091,-0.0067,-0.0067,-0.0066,-0.0066,0.0002,0.0004,0.0005,0,0,0,0,0,0,0,0,0,0,0,0,0,-0.0106,-0.0116,-0.0116,-0.0101,-0.0099,-0.0091,-0.0091,-0.0091,-0.0067,-0.0067,-0.0066,-0.0066,0.0001,0.0003,0.0006,0.0012,0,0,0.0013,0.0014,0,0,0,0,0,0,0,0,-0.0107,-0.0106,-0.0103,-0.0102,-0.01,-0.0082,-0.0066,-0.0054,-0.0067,-0.0079,-0.0066,-0.0066,-0.0022,-0.0018,-0.0015,0.0015,0.0018,0.0013,0.0014,0.0015,0.0016,0,0,0,0,0,0,0,-0.0107,-0.0107,-0.0106,-0.0103,-0.0101,-0.0086,-0.0085,-0.0064,-0.0052,-0.0078,-0.0076,-0.0074,-0.0021,-0.0017,-0.0013,0.0019,0.0013,0.0015,0.0017,0.0017,0.0073,0.0073,0,0,0,0,0,0,-0.0113,-0.0108,-0.0107,-0.0105,-0.0103,-0.0087,-0.0085,-0.0088,-0.0053,-0.0048,-0.0074,-0.0073,-0.0021,-0.0016,-0.001,0.0008,0.0015,0.0018,0.0019,0.0073,0.0073,0.0073,0,0,0,0,0,0,-0.0113,-0.0113,-0.0108,-0.0106,-0.0104,-0.0087,-0.0091,-0.0088,-0.0083,-0.0051,-0.0045,-0.0073,-0.0021,-0.0013,0.0006,0.0011,0.0019,0.0021,0.0073,0.0073,0.0073,0.0039,0,0,0,0,0,0,-0.0113,-0.0114,-0.0118,-0.0106,-0.0104,-0.0107,-0.0091,-0.0088,-0.0082,-0.008,-0.0048,-0.0041,-0.002,0.0002,0.0008,0.0014,0.0023,0.0073,0.0073,0.0073,0.004,0.0038,0.0036,0,0,0,0,0,-0.0113,-0.0123,-0.0119,-0.0119,-0.0111,-0.0107,-0.0105,-0.0091,-0.0083,-0.0085,-0.0062,-0.0042,0.0008,0.0004,0.0011,0.0018,0.0072,0.0073,0.0073,0.0041,0.0038,0.0036,0,0,0,0,0,0,-0.0127,-0.0121,-0.0116,-0.0124,-0.0118,-0.0103,-0.0104,-0.0094,-0.0079,-0.0075,-0.0044,-0.0037,-0.0017,0.0003,-0.0001,0.0034,0.0045,0.0046,0.0018,0.0016,0.0014,0.0009,0.0025,0,0,0,0,0,-0.0133,-0.0138,-0.0129,-0.0135,-0.0133,-0.0119,-0.0116,-0.0107,-0.0092,-0.0085,-0.0063,-0.0036,-0.0011,0.0004,0.0025,0.0043,0.0065,0.0053,0.0051,0.0049,0.005,0.0086,0.0087,0.0073,0.0073,0.0073,0,0,-0.0139,-0.0137,-0.0139,-0.0138,-0.0131,-0.0134,-0.0116,-0.0115,-0.0113,-0.0079,-0.007,-0.0044,-0.0009,0.001,0.0021,0.0028,0.0063,0.005,0.0048,0.005,0.0086,0.0088,0.0089,0.0073,0.0073,0.0073,0,0,-0.0156,-0.0153,-0.0164,-0.0161,-0.0156,-0.0146,-0.0147,-0.0135,-0.0126,-0.0115,-0.0088,-0.006,-0.0029,0.0001,0.002,0.0021,0.0049,0.0027,0.0017,0.0051,0.0053,0.0054,0.0076,0.008,0.0029,0.0029,0.0029,0,-0.0165,-0.0177,-0.0166,-0.0175,-0.0176,-0.0154,-0.0164,-0.0152,-0.0134,-0.0124,-0.0116,-0.0062,-0.0031,0.0003,0.0005,0.0018,0.0034,0.0022,0.0049,0.0051,0.0053,0.0075,0.0079,0.0028,0.0028,0.0028,0.0028,0,-0.0189,-0.0199,-0.0205,-0.0209,-0.0206,-0.0212,-0.0195,-0.0188,-0.0172,-0.0155,-0.0125,-0.0084,-0.005,-0.0033,-0.0012,0.002,0.0025,0.0038,0.0053,0.0052,0.0075,0.008,0.0025,0.0026,0.0026,0.0027,0,0,-0.0213,-0.0221,-0.0224,-0.0235,-0.0226,-0.023,-0.0222,-0.0209,-0.0205,-0.0173,-0.0161,-0.0107,-0.0083,-0.0059,-0.0026,0.001,0.0041,0.0028,0.003,0.0045,0.0106,0.0096,0.0102,0.0057,0.0058,0.0058,0.0112,0,-0.0237,-0.0267,-0.0258,-0.0281,-0.0295,-0.0272,-0.0269,-0.0251,-0.0227,-0.0209,-0.0154,-0.013,-0.0093,-0.0079,-0.0036,0.0019,0.0055,0.0025,0.0108,0.011,0.0099,0.0108,0.0061,0.0116,0.0117,0.0118,0.0119,0,-0.0267,-0.0283,-0.0313,-0.0325,-0.0328,-0.0335,-0.0327,-0.032,-0.0279,-0.0259,-0.0216,-0.0177,-0.0119,-0.0091,0.0009,-0.0016,0.0043,0.0089,0.0093,0.0101,0.0111,0.012,0.0129,0.0128,0.0128,0.0127,0.0126,0,-0.0299,-0.0322,-0.0349,-0.0354,-0.036,-0.0367,-0.0366,-0.0337,-0.0333,-0.0291,-0.0279,-0.0208,-0.0174,-0.0092,0.0008,0.0006,0.0115,0.0126,0.0174,0.0174,0.018,0.0178,0.0201,0.0201,0.0201,0.0201,0.02,0,-0.0331,-0.0355,-0.0371,-0.0388,-0.042,-0.0408,-0.0426,-0.041,-0.0384,-0.0375,-0.0311,-0.0282,-0.0171,-0.0095,-0.0005,0.0097,0.0107,0.0174,0.019,0.0163,0.0159,0.0184,0.0181,0.0203,0.0202,0.0202,0.0201,0,-0.0362,-0.0372,-0.0409,-0.0429,-0.044,-0.0463,-0.0474,-0.048,-0.0451,-0.0436,-0.0425,-0.0337,-0.0237,-0.0125,0.0011,0.0075,0.0177,0.0215,0.0168,0.0181,0.0215,0.021,0.0266,0.0266,0.0266,0.0266,0.0266,0,-0.0379,-0.0401,-0.0445,-0.0473,-0.0487,-0.0517,-0.0534,-0.0518,-0.0515,-0.0462,-0.0452,-0.036,-0.0289,-0.0105,0.0009,0.0166,0.0195,0.0236,0.0237,0.0213,0.0223,0.0218,0.0213,0.0267,0.0267,0.0267,0.0267,0,-0.0408,-0.0425,-0.0454,-0.0513,-0.0547,-0.0579,-0.0597,-0.0599,-0.0566,-0.0546,-0.046,-0.0358,-0.0244,-0.0102,0.0018,0.0134,0.0199,0.0238,0.0239,0.024,0.0215,0.0223,0.0218,0.0267,0.0267,0.0267,0.0267,0,-0.0425,-0.0455,-0.0495,-0.0543,-0.0592,-0.0621,-0.0628,-0.0607,-0.0594,-0.0524,-0.0496,-0.0361,-0.0281,-0.0118,-0.0005,0.0102,0.0131,0.0161,0.0166,0.0167,0.0122,0.0074,0.01,0,0,0,0,0,-0.0437,-0.047,-0.052,-0.0572,-0.0621,-0.0643,-0.0658,-0.0652,-0.0622,-0.0562,-0.0523,-0.0408,-0.0227,-0.0147,-0.004,-0.0015,0.0133,0.0111,0.0166,0.0271,0.027,0.0234,0,0,0,0,0,0,-0.0446,-0.0495,-0.0519,-0.0581,-0.0619,-0.0664,-0.0673,-0.0653,-0.0608,-0.0561,-0.046,-0.0394,-0.0218,-0.0287,-0.0041,-0.0009,0.0037,0.02,0.0202,0.0271,0.027,0.027,0.0233,0,0,0,0,0]}]]